カタログに戻る

NEONSAT-1

運用中科学SSO
NORAD 59587·PAYLOAD·🇰🇷 South Korea

打ち上げ Apr 23, 2024 から Rocket Lab Launch Complex 1

Loading…

次のパス (今後24時間)

TLE

最新Source: Space-Track

元期: Sep 14, 2026, 21:39 UTC

1 59587U 24077A   26257.90213553  .00012558  00000-0  31103-3 0  9996
2 59587  97.3445 342.2230 0009044  73.2633 286.9605 15.40510712133532

AllMySatでNEONSAT-1をリアルタイム追跡

Download on the App Store